Location: Unspecified
(41.1637°N, 24.2901°E)
Time: 16:07:00
(UTC+01:00)

ISS - Pass Details

Date: 11 March 2026
Orbit: 417 x 426 km, 51.6° (Epoch: 16 March)

Event Time Altitude Azimuth Distance (km) Brightness Sun altitude
Rises 19:41:54 0° 251° (WSW) 2,374 0.8 -26.2°
Reaches altitude 10° 19:44:04 10° 258° (WSW) 1,510 -0.2 -26.6°
Enters shadow 19:45:45 25° 275° (W) 906 -1.5 -26.9°
